Year,Month,Day,Hour,Minute,Value (Times are PST for temperature in C)
2012,04,21,00,00,6.80
2012,04,21,00,01,6.80
2012,04,21,00,02,6.80
2012,04,21,00,03,6.90
2012,04,21,00,04,6.90
2012,04,21,00,05,6.90
2012,04,21,00,06,6.90
2012,04,21,00,07,6.90
2012,04,21,00,08,6.90
2012,04,21,00,09,6.90
2012,04,21,00,10,6.90
2012,04,21,00,11,6.90
2012,04,21,00,12,6.90
2012,04,21,00,13,6.90
2012,04,21,00,14,6.80
2012,04,21,00,15,6.80
2012,04,21,00,16,6.80
2012,04,21,00,17,6.80
2012,04,21,00,18,6.80
2012,04,21,00,19,6.80
2012,04,21,00,20,6.80
2012,04,21,00,21,6.80
2012,04,21,00,22,6.80
2012,04,21,00,23,6.80
2012,04,21,00,24,6.80
2012,04,21,00,25,6.80
2012,04,21,00,26,6.70
2012,04,21,00,27,6.70
2012,04,21,00,28,6.70
2012,04,21,00,29,6.70
2012,04,21,00,30,6.70
2012,04,21,00,31,6.70
2012,04,21,00,32,6.70
2012,04,21,00,33,6.70
2012,04,21,00,34,6.70
2012,04,21,00,35,6.70
2012,04,21,00,36,6.70
2012,04,21,00,37,6.70
2012,04,21,00,38,6.70
2012,04,21,00,39,6.80
2012,04,21,00,40,6.80
2012,04,21,00,41,6.80
2012,04,21,00,42,6.80
2012,04,21,00,43,6.80
2012,04,21,00,44,6.80
2012,04,21,00,45,6.80
2012,04,21,00,46,6.80
2012,04,21,00,47,6.80
2012,04,21,00,48,6.80
2012,04,21,00,49,6.80
2012,04,21,00,50,6.80
2012,04,21,00,51,6.80
2012,04,21,00,52,6.80
2012,04,21,00,53,6.80
2012,04,21,00,54,6.80
2012,04,21,00,55,6.80
2012,04,21,00,56,6.80
2012,04,21,00,57,6.80
2012,04,21,00,58,6.80
2012,04,21,00,59,6.80
2012,04,21,01,00,6.80
2012,04,21,01,01,6.70
2012,04,21,01,02,6.70
2012,04,21,01,03,6.80
2012,04,21,01,04,6.70
2012,04,21,01,05,6.70
2012,04,21,01,06,6.70
2012,04,21,01,07,6.70
2012,04,21,01,08,6.70
2012,04,21,01,09,6.70
2012,04,21,01,10,6.70
2012,04,21,01,11,6.70
2012,04,21,01,12,6.70
2012,04,21,01,13,6.70
2012,04,21,01,14,6.70
2012,04,21,01,15,6.70
2012,04,21,01,16,6.70
2012,04,21,01,17,6.70
2012,04,21,01,18,6.70
2012,04,21,01,19,6.70
2012,04,21,01,20,6.70
2012,04,21,01,21,6.60
2012,04,21,01,22,6.60
2012,04,21,01,23,6.60
2012,04,21,01,24,6.60
2012,04,21,01,25,6.60
2012,04,21,01,26,6.60
2012,04,21,01,27,6.50
2012,04,21,01,28,6.50
2012,04,21,01,29,6.50
2012,04,21,01,30,6.40
2012,04,21,01,31,6.40
2012,04,21,01,32,6.40
2012,04,21,01,33,6.30
2012,04,21,01,34,6.30
2012,04,21,01,35,6.30
2012,04,21,01,36,6.30
2012,04,21,01,37,6.30
2012,04,21,01,38,6.30
2012,04,21,01,39,6.20
2012,04,21,01,40,6.20
2012,04,21,01,41,6.20
2012,04,21,01,42,6.20
2012,04,21,01,43,6.20
2012,04,21,01,44,6.20
2012,04,21,01,45,6.20
2012,04,21,01,46,6.10
2012,04,21,01,47,6.10
2012,04,21,01,48,6.10
2012,04,21,01,49,6.10
2012,04,21,01,50,6.00
2012,04,21,01,51,6.00
2012,04,21,01,52,6.00
2012,04,21,01,53,6.00
2012,04,21,01,54,5.90
2012,04,21,01,55,5.90
2012,04,21,01,56,5.90
2012,04,21,01,57,5.90
2012,04,21,01,58,5.90
2012,04,21,01,59,5.90
2012,04,21,02,00,5.90
2012,04,21,02,01,5.90
2012,04,21,02,02,5.90
2012,04,21,02,03,5.90
2012,04,21,02,04,5.90
2012,04,21,02,05,5.90
2012,04,21,02,06,5.90
2012,04,21,02,07,5.90
2012,04,21,02,08,5.80
2012,04,21,02,09,5.80
2012,04,21,02,10,5.80
2012,04,21,02,11,5.80
2012,04,21,02,12,5.80
2012,04,21,02,13,5.80
2012,04,21,02,14,5.80
2012,04,21,02,15,5.80
2012,04,21,02,16,5.80
2012,04,21,02,17,5.80
2012,04,21,02,18,5.80
2012,04,21,02,19,5.80
2012,04,21,02,20,5.70
2012,04,21,02,21,5.70
2012,04,21,02,22,5.70
2012,04,21,02,23,5.70
2012,04,21,02,24,5.70
2012,04,21,02,25,5.70
2012,04,21,02,26,5.70
2012,04,21,02,27,5.70
2012,04,21,02,28,5.70
2012,04,21,02,29,5.70
2012,04,21,02,30,5.70
2012,04,21,02,31,5.60
2012,04,21,02,32,5.60
2012,04,21,02,33,5.60
2012,04,21,02,34,5.60
2012,04,21,02,35,5.60
2012,04,21,02,36,5.60
2012,04,21,02,37,5.60
2012,04,21,02,38,5.60
2012,04,21,02,39,5.60
2012,04,21,02,40,5.50
2012,04,21,02,41,5.50
2012,04,21,02,42,5.50
2012,04,21,02,43,5.50
2012,04,21,02,44,5.40
2012,04,21,02,45,5.40
2012,04,21,02,46,5.40
2012,04,21,02,47,5.40
2012,04,21,02,48,5.40
2012,04,21,02,49,5.40
2012,04,21,02,50,5.30
2012,04,21,02,51,5.30
2012,04,21,02,52,5.30
2012,04,21,02,53,5.30
2012,04,21,02,54,5.30
2012,04,21,02,55,5.30
2012,04,21,02,56,5.30
2012,04,21,02,57,5.30
2012,04,21,02,58,5.30
2012,04,21,02,59,5.30
2012,04,21,03,00,5.30
2012,04,21,03,01,5.30
2012,04,21,03,02,5.30
2012,04,21,03,03,5.30
2012,04,21,03,04,5.30
2012,04,21,03,05,5.30
2012,04,21,03,06,5.30
2012,04,21,03,07,5.30
2012,04,21,03,08,5.30
2012,04,21,03,09,5.30
2012,04,21,03,10,5.30
2012,04,21,03,11,5.30
2012,04,21,03,12,5.30
2012,04,21,03,13,5.30
2012,04,21,03,14,5.30
2012,04,21,03,15,5.30
2012,04,21,03,16,5.30
2012,04,21,03,17,5.40
2012,04,21,03,18,5.40
2012,04,21,03,19,5.40
2012,04,21,03,20,5.40
2012,04,21,03,21,5.40
2012,04,21,03,22,5.40
2012,04,21,03,23,5.40
2012,04,21,03,24,5.30
2012,04,21,03,25,5.30
2012,04,21,03,26,5.30
2012,04,21,03,27,5.30
2012,04,21,03,28,5.30
2012,04,21,03,29,5.30
2012,04,21,03,30,5.30
2012,04,21,03,31,5.30
2012,04,21,03,32,5.30
2012,04,21,03,33,5.30
2012,04,21,03,34,5.30
2012,04,21,03,35,5.30
2012,04,21,03,36,5.20
2012,04,21,03,37,5.20
2012,04,21,03,38,5.20
2012,04,21,03,39,5.20
2012,04,21,03,40,5.20
2012,04,21,03,41,5.20
2012,04,21,03,42,5.20
2012,04,21,03,43,5.20
2012,04,21,03,44,5.20
2012,04,21,03,45,5.20
2012,04,21,03,46,5.20
2012,04,21,03,47,5.20
2012,04,21,03,48,5.20
2012,04,21,03,49,5.20
2012,04,21,03,50,5.20
2012,04,21,03,51,5.20
2012,04,21,03,52,5.20
2012,04,21,03,53,5.20
2012,04,21,03,54,5.20
2012,04,21,03,55,5.20
2012,04,21,03,56,5.20
2012,04,21,03,57,5.20
2012,04,21,03,58,5.20
2012,04,21,03,59,5.10
2012,04,21,04,00,5.10
2012,04,21,04,01,5.10
2012,04,21,04,02,5.10
2012,04,21,04,03,5.10
2012,04,21,04,04,5.10
2012,04,21,04,05,5.10
2012,04,21,04,06,5.10
2012,04,21,04,07,5.10
2012,04,21,04,08,5.10
2012,04,21,04,09,5.00
2012,04,21,04,10,5.00
2012,04,21,04,11,5.00
2012,04,21,04,12,5.00
2012,04,21,04,13,4.90
2012,04,21,04,14,4.90
2012,04,21,04,15,4.90
2012,04,21,04,16,4.90
2012,04,21,04,17,4.90
2012,04,21,04,18,4.90
2012,04,21,04,19,4.90
2012,04,21,04,20,4.90
2012,04,21,04,21,4.90
2012,04,21,04,22,4.90
2012,04,21,04,23,4.80
2012,04,21,04,24,4.80
2012,04,21,04,25,4.80
2012,04,21,04,26,4.80
2012,04,21,04,27,4.80
2012,04,21,04,28,4.80
2012,04,21,04,29,4.80
2012,04,21,04,30,4.80
2012,04,21,04,31,4.80
2012,04,21,04,32,4.80
2012,04,21,04,33,4.80
2012,04,21,04,34,4.80
2012,04,21,04,35,4.80
2012,04,21,04,36,4.80
2012,04,21,04,37,4.80
2012,04,21,04,38,4.80
2012,04,21,04,39,4.80
2012,04,21,04,40,4.80
2012,04,21,04,41,4.80
2012,04,21,04,42,4.80
2012,04,21,04,43,4.80
2012,04,21,04,44,4.80
2012,04,21,04,45,4.80
2012,04,21,04,46,4.80
2012,04,21,04,47,4.80
2012,04,21,04,48,4.80
2012,04,21,04,49,4.80
2012,04,21,04,50,4.80
2012,04,21,04,51,4.80
2012,04,21,04,52,4.80
2012,04,21,04,53,4.80
2012,04,21,04,54,4.80
2012,04,21,04,55,4.80
2012,04,21,04,56,4.80
2012,04,21,04,57,4.80
2012,04,21,04,58,4.80
2012,04,21,04,59,4.80
2012,04,21,05,00,4.80
2012,04,21,05,01,4.80
2012,04,21,05,02,4.80
2012,04,21,05,03,4.80
2012,04,21,05,04,4.80
2012,04,21,05,05,4.80
2012,04,21,05,06,4.80
2012,04,21,05,07,4.80
2012,04,21,05,08,4.80
2012,04,21,05,09,4.80
2012,04,21,05,10,4.80
2012,04,21,05,11,4.80
2012,04,21,05,12,4.80
2012,04,21,05,13,4.80
2012,04,21,05,14,4.80
2012,04,21,05,15,4.80
2012,04,21,05,16,4.80
2012,04,21,05,17,4.80
2012,04,21,05,18,4.80
2012,04,21,05,19,4.80
2012,04,21,05,20,4.80
2012,04,21,05,21,4.80
2012,04,21,05,22,4.80
2012,04,21,05,23,4.80
2012,04,21,05,24,4.80
2012,04,21,05,25,4.80
2012,04,21,05,26,4.80
2012,04,21,05,27,4.80
2012,04,21,05,28,4.80
2012,04,21,05,29,4.80
2012,04,21,05,30,4.80
2012,04,21,05,31,4.80
2012,04,21,05,32,4.80
2012,04,21,05,33,4.80
2012,04,21,05,34,4.80
2012,04,21,05,35,4.80
2012,04,21,05,36,4.80
2012,04,21,05,37,4.80
2012,04,21,05,38,4.80
2012,04,21,05,39,4.80
2012,04,21,05,40,4.80
2012,04,21,05,41,4.80
2012,04,21,05,42,4.80
2012,04,21,05,43,4.80
2012,04,21,05,44,4.80
2012,04,21,05,45,4.70
2012,04,21,05,46,4.70
2012,04,21,05,47,4.70
2012,04,21,05,48,4.70
2012,04,21,05,49,4.70
2012,04,21,05,50,4.70
2012,04,21,05,51,4.70
2012,04,21,05,52,4.70
2012,04,21,05,53,4.70
2012,04,21,05,54,4.70
2012,04,21,05,55,4.70
2012,04,21,05,56,4.70
2012,04,21,05,57,4.70
2012,04,21,05,58,4.70
2012,04,21,05,59,4.70
2012,04,21,06,00,4.70
2012,04,21,06,01,4.70
2012,04,21,06,02,4.70
2012,04,21,06,03,4.70
2012,04,21,06,04,4.70
2012,04,21,06,05,4.70
2012,04,21,06,06,4.70
2012,04,21,06,07,4.70
2012,04,21,06,08,4.70
2012,04,21,06,09,4.70
2012,04,21,06,10,4.70
2012,04,21,06,11,4.70
2012,04,21,06,12,4.70
2012,04,21,06,13,4.70
2012,04,21,06,14,4.70
2012,04,21,06,15,4.70
2012,04,21,06,16,4.70
2012,04,21,06,17,4.70
2012,04,21,06,18,4.60
2012,04,21,06,19,4.60
2012,04,21,06,20,4.60
2012,04,21,06,21,4.60
2012,04,21,06,22,4.60
2012,04,21,06,23,4.60
2012,04,21,06,24,4.60
2012,04,21,06,25,4.60
2012,04,21,06,26,4.60
2012,04,21,06,27,4.60
2012,04,21,06,28,4.60
2012,04,21,06,29,4.60
2012,04,21,06,30,4.60
2012,04,21,06,31,4.60
2012,04,21,06,32,4.50
2012,04,21,06,33,4.50
2012,04,21,06,34,4.50
2012,04,21,06,35,4.50
2012,04,21,06,36,4.50
2012,04,21,06,37,4.50
2012,04,21,06,38,4.50
2012,04,21,06,39,4.50
2012,04,21,06,40,4.50
2012,04,21,06,41,4.50
2012,04,21,06,42,4.50
2012,04,21,06,43,4.50
2012,04,21,06,44,4.60
2012,04,21,06,45,4.60
2012,04,21,06,46,4.60
2012,04,21,06,47,4.60
2012,04,21,06,48,4.60
2012,04,21,06,49,4.60
2012,04,21,06,50,4.60
2012,04,21,06,51,4.60
2012,04,21,06,52,4.60
2012,04,21,06,53,4.60
2012,04,21,06,54,4.60
2012,04,21,06,55,4.60
2012,04,21,06,56,4.60
2012,04,21,06,57,4.60
2012,04,21,06,58,4.60
2012,04,21,06,59,4.60
2012,04,21,07,00,4.60
2012,04,21,07,01,4.60
2012,04,21,07,02,4.60
2012,04,21,07,03,4.70
2012,04,21,07,04,4.70
2012,04,21,07,05,4.70
2012,04,21,07,06,4.70
2012,04,21,07,07,4.70
2012,04,21,07,08,4.70
2012,04,21,07,09,4.70
2012,04,21,07,10,4.70
2012,04,21,07,11,4.70
2012,04,21,07,12,4.70
2012,04,21,07,13,4.70
2012,04,21,07,14,4.70
2012,04,21,07,15,4.70
2012,04,21,07,16,4.70
2012,04,21,07,17,4.70
2012,04,21,07,18,4.70
2012,04,21,07,19,4.80
2012,04,21,07,20,4.80
2012,04,21,07,21,4.80
2012,04,21,07,22,4.80
2012,04,21,07,23,4.80
2012,04,21,07,24,4.80
2012,04,21,07,25,4.80
2012,04,21,07,26,4.80
2012,04,21,07,27,4.80
2012,04,21,07,28,4.80
2012,04,21,07,29,4.80
2012,04,21,07,30,4.80
2012,04,21,07,31,4.80
2012,04,21,07,32,4.80
2012,04,21,07,33,4.90
2012,04,21,07,34,4.90
2012,04,21,07,35,4.90
2012,04,21,07,36,4.90
2012,04,21,07,37,4.90
2012,04,21,07,38,4.90
2012,04,21,07,39,4.90
2012,04,21,07,40,4.90
2012,04,21,07,41,5.00
2012,04,21,07,42,5.00
2012,04,21,07,43,5.00
2012,04,21,07,44,5.00
2012,04,21,07,45,5.10
2012,04,21,07,46,5.10
2012,04,21,07,47,5.10
2012,04,21,07,48,5.10
2012,04,21,07,49,5.10
2012,04,21,07,50,5.20
2012,04,21,07,51,5.20
2012,04,21,07,52,5.20
2012,04,21,07,53,5.20
2012,04,21,07,54,5.20
2012,04,21,07,55,5.20
2012,04,21,07,56,5.20
2012,04,21,07,57,5.20
2012,04,21,07,58,5.30
2012,04,21,07,59,5.30
2012,04,21,08,00,5.30
2012,04,21,08,01,5.30
2012,04,21,08,02,5.30
2012,04,21,08,03,5.30
2012,04,21,08,04,5.30
2012,04,21,08,05,5.30
2012,04,21,08,06,5.30
2012,04,21,08,07,5.40
2012,04,21,08,08,5.40
2012,04,21,08,09,5.40
2012,04,21,08,10,5.40
2012,04,21,08,11,5.50
2012,04,21,08,12,5.50
2012,04,21,08,13,5.60
2012,04,21,08,14,5.60
2012,04,21,08,15,5.60
2012,04,21,08,16,5.60
2012,04,21,08,17,5.70
2012,04,21,08,18,5.70
2012,04,21,08,19,5.70
2012,04,21,08,20,5.70
2012,04,21,08,21,5.80
2012,04,21,08,22,5.80
2012,04,21,08,23,5.80
2012,04,21,08,24,5.80
2012,04,21,08,25,5.80
2012,04,21,08,26,5.90
2012,04,21,08,27,5.90
2012,04,21,08,28,5.90
2012,04,21,08,29,6.00
2012,04,21,08,30,6.00
2012,04,21,08,31,6.00
2012,04,21,08,32,6.10
2012,04,21,08,33,6.10
2012,04,21,08,34,6.10
2012,04,21,08,35,6.10
2012,04,21,08,36,6.20
2012,04,21,08,37,6.20
2012,04,21,08,38,6.20
2012,04,21,08,39,6.20
2012,04,21,08,40,6.20
2012,04,21,08,41,6.20
2012,04,21,08,42,6.20
2012,04,21,08,43,6.20
2012,04,21,08,44,6.30
2012,04,21,08,45,6.30
2012,04,21,08,46,6.30
2012,04,21,08,47,6.30
2012,04,21,08,48,6.30
2012,04,21,08,49,6.30
2012,04,21,08,50,6.30
2012,04,21,08,51,6.40
2012,04,21,08,52,6.40
2012,04,21,08,53,6.40
2012,04,21,08,54,6.50
2012,04,21,08,55,6.50
2012,04,21,08,56,6.60
2012,04,21,08,57,6.60
2012,04,21,08,58,6.70
2012,04,21,08,59,6.70
2012,04,21,09,00,6.80
2012,04,21,09,01,6.80
2012,04,21,09,02,6.90
2012,04,21,09,03,6.90
2012,04,21,09,04,7.00
2012,04,21,09,05,7.00
2012,04,21,09,06,7.10
2012,04,21,09,07,7.10
2012,04,21,09,08,7.20
2012,04,21,09,09,7.20
2012,04,21,09,10,7.30
2012,04,21,09,11,7.30
2012,04,21,09,12,7.40
2012,04,21,09,13,7.40
2012,04,21,09,14,7.50
2012,04,21,09,15,7.60
2012,04,21,09,16,7.60
2012,04,21,09,17,7.70
2012,04,21,09,18,7.80
2012,04,21,09,19,7.80
2012,04,21,09,20,7.90
2012,04,21,09,21,8.00
2012,04,21,09,22,8.10
2012,04,21,09,23,8.20
2012,04,21,09,24,8.20
2012,04,21,09,25,8.30
2012,04,21,09,26,8.40
2012,04,21,09,27,8.50
2012,04,21,09,28,8.50
2012,04,21,09,29,8.60
2012,04,21,09,30,8.60
2012,04,21,09,31,8.70
2012,04,21,09,32,8.70
2012,04,21,09,33,8.80
2012,04,21,09,34,8.80
2012,04,21,09,35,8.80
2012,04,21,09,36,8.90
2012,04,21,09,37,8.90
2012,04,21,09,38,9.00
2012,04,21,09,39,9.10
2012,04,21,09,40,9.10
2012,04,21,09,41,9.10
2012,04,21,09,42,9.10
2012,04,21,09,43,9.10
2012,04,21,09,44,9.10
2012,04,21,09,45,9.10
2012,04,21,09,46,9.10
2012,04,21,09,47,9.10
2012,04,21,09,48,9.10
2012,04,21,09,49,9.10
2012,04,21,09,50,9.10
2012,04,21,09,51,9.20
2012,04,21,09,52,9.20
2012,04,21,09,53,9.20
2012,04,21,09,54,9.20
2012,04,21,09,55,9.30
2012,04,21,09,56,9.30
2012,04,21,09,57,9.30
2012,04,21,09,58,9.30
2012,04,21,09,59,9.40
2012,04,21,10,00,9.40
2012,04,21,10,01,9.50
2012,04,21,10,02,9.50
2012,04,21,10,03,9.50
2012,04,21,10,04,9.50
2012,04,21,10,05,9.60
2012,04,21,10,06,9.60
2012,04,21,10,07,9.60
2012,04,21,10,08,9.60
2012,04,21,10,09,9.60
2012,04,21,10,10,9.60
2012,04,21,10,11,9.60
2012,04,21,10,12,9.70
2012,04,21,10,13,9.70
2012,04,21,10,14,9.80
2012,04,21,10,15,9.80
2012,04,21,10,16,9.80
2012,04,21,10,17,9.90
2012,04,21,10,18,9.90
2012,04,21,10,19,9.90
2012,04,21,10,20,10.00
2012,04,21,10,21,10.00
2012,04,21,10,22,10.00
2012,04,21,10,23,10.10
2012,04,21,10,24,10.10
2012,04,21,10,25,10.20
2012,04,21,10,26,10.20
2012,04,21,10,27,10.20
2012,04,21,10,28,10.30
2012,04,21,10,29,10.30
2012,04,21,10,30,10.30
2012,04,21,10,31,10.30
2012,04,21,10,32,10.30
2012,04,21,10,33,10.30
2012,04,21,10,34,10.40
2012,04,21,10,35,10.40
2012,04,21,10,36,10.40
2012,04,21,10,37,10.30
2012,04,21,10,38,10.30
2012,04,21,10,39,10.30
2012,04,21,10,40,10.30
2012,04,21,10,41,10.40
2012,04,21,10,42,10.40
2012,04,21,10,43,10.40
2012,04,21,10,44,10.40
2012,04,21,10,45,10.40
2012,04,21,10,46,10.40
2012,04,21,10,47,10.40
2012,04,21,10,48,10.40
2012,04,21,10,49,10.40
2012,04,21,10,50,10.40
2012,04,21,10,51,10.40
2012,04,21,10,52,10.40
2012,04,21,10,53,10.40
2012,04,21,10,54,10.50
2012,04,21,10,55,10.50
2012,04,21,10,56,10.50
2012,04,21,10,57,10.50
2012,04,21,10,58,10.50
2012,04,21,10,59,10.60
2012,04,21,11,00,10.60
2012,04,21,11,01,10.60
2012,04,21,11,02,10.60
2012,04,21,11,03,10.70
2012,04,21,11,04,10.70
2012,04,21,11,05,10.70
2012,04,21,11,06,10.80
2012,04,21,11,07,10.80
2012,04,21,11,08,10.80
2012,04,21,11,09,10.80
2012,04,21,11,10,10.80
2012,04,21,11,11,10.80
2012,04,21,11,12,10.80
2012,04,21,11,13,10.90
2012,04,21,11,14,10.90
2012,04,21,11,15,11.00
2012,04,21,11,16,11.10
2012,04,21,11,17,11.10
2012,04,21,11,18,11.10
2012,04,21,11,19,11.20
2012,04,21,11,20,11.20
2012,04,21,11,21,11.20
2012,04,21,11,22,11.20
2012,04,21,11,23,11.20
2012,04,21,11,24,11.30
2012,04,21,11,25,11.30
2012,04,21,11,26,11.40
2012,04,21,11,27,11.40
2012,04,21,11,28,11.40
2012,04,21,11,29,11.40
2012,04,21,11,30,11.30
2012,04,21,11,31,11.30
2012,04,21,11,32,11.20
2012,04,21,11,33,11.10
2012,04,21,11,34,11.10
2012,04,21,11,35,11.10
2012,04,21,11,36,11.10
2012,04,21,11,37,11.10
2012,04,21,11,38,11.10
2012,04,21,11,39,11.10
2012,04,21,11,40,11.20
2012,04,21,11,41,11.20
2012,04,21,11,42,11.30
2012,04,21,11,43,11.30
2012,04,21,11,44,11.30
2012,04,21,11,45,11.40
2012,04,21,11,46,11.40
2012,04,21,11,47,11.40
2012,04,21,11,48,11.50
2012,04,21,11,49,11.50
2012,04,21,11,50,11.50
2012,04,21,11,51,11.50
2012,04,21,11,52,11.50
2012,04,21,11,53,11.50
2012,04,21,11,54,11.50
2012,04,21,11,55,11.50
2012,04,21,11,56,11.50
2012,04,21,11,57,11.50
2012,04,21,11,58,11.50
2012,04,21,11,59,11.50
2012,04,21,12,00,11.50
2012,04,21,12,01,11.50
2012,04,21,12,02,11.50
2012,04,21,12,03,11.50
2012,04,21,12,04,11.50
2012,04,21,12,05,11.60
2012,04,21,12,06,11.60
2012,04,21,12,07,11.60
2012,04,21,12,08,11.60
2012,04,21,12,09,11.70
2012,04,21,12,10,11.70
2012,04,21,12,11,11.70
2012,04,21,12,12,11.70
2012,04,21,12,13,11.70
2012,04,21,12,14,11.70
2012,04,21,12,15,11.70
2012,04,21,12,16,11.70
2012,04,21,12,17,11.80
2012,04,21,12,18,11.90
2012,04,21,12,19,12.00
2012,04,21,12,20,12.10
2012,04,21,12,21,12.10
2012,04,21,12,22,12.10
2012,04,21,12,23,12.10
2012,04,21,12,24,12.10
2012,04,21,12,25,12.20
2012,04,21,12,26,12.20
2012,04,21,12,27,12.30
2012,04,21,12,28,12.30
2012,04,21,12,29,12.30
2012,04,21,12,30,12.30
2012,04,21,12,31,12.30
2012,04,21,12,32,12.30
2012,04,21,12,33,12.40
2012,04,21,12,34,12.40
2012,04,21,12,35,12.50
2012,04,21,12,36,12.50
2012,04,21,12,37,12.60
2012,04,21,12,38,12.60
2012,04,21,12,39,12.60
2012,04,21,12,40,12.70
2012,04,21,12,41,12.70
2012,04,21,12,42,12.70
2012,04,21,12,43,12.60
2012,04,21,12,44,12.60
2012,04,21,12,45,12.60
2012,04,21,12,46,12.60
2012,04,21,12,47,12.60
2012,04,21,12,48,12.50
2012,04,21,12,49,12.50
2012,04,21,12,50,12.40
2012,04,21,12,51,12.30
2012,04,21,12,52,12.30
2012,04,21,12,53,12.30
2012,04,21,12,54,12.30
2012,04,21,12,55,12.40
2012,04,21,12,56,12.50
2012,04,21,12,57,12.50
2012,04,21,12,58,12.60
2012,04,21,12,59,12.70
2012,04,21,13,00,12.80
2012,04,21,13,01,12.80
2012,04,21,13,02,12.90
2012,04,21,13,03,12.90
2012,04,21,13,04,12.90
2012,04,21,13,05,13.00
2012,04,21,13,06,13.00
2012,04,21,13,07,13.00
2012,04,21,13,08,13.00
2012,04,21,13,09,13.00
2012,04,21,13,10,13.00
2012,04,21,13,11,13.00
2012,04,21,13,12,13.00
2012,04,21,13,13,13.00
2012,04,21,13,14,13.10
2012,04,21,13,15,13.10
2012,04,21,13,16,13.10
2012,04,21,13,17,13.20
2012,04,21,13,18,13.20
2012,04,21,13,19,13.30
2012,04,21,13,20,13.30
2012,04,21,13,21,13.40
2012,04,21,13,22,13.40
2012,04,21,13,23,13.50
2012,04,21,13,24,13.50
2012,04,21,13,25,13.50
2012,04,21,13,26,13.60
2012,04,21,13,27,13.60
2012,04,21,13,28,13.60
2012,04,21,13,29,13.60
2012,04,21,13,30,13.60
2012,04,21,13,31,13.50
2012,04,21,13,32,13.40
2012,04,21,13,33,13.40
2012,04,21,13,34,13.40
2012,04,21,13,35,13.40
2012,04,21,13,36,13.40
2012,04,21,13,37,13.30
2012,04,21,13,38,13.30
2012,04,21,13,39,13.30
2012,04,21,13,40,13.40
2012,04,21,13,41,13.40
2012,04,21,13,42,13.50
2012,04,21,13,43,13.50
2012,04,21,13,44,13.50
2012,04,21,13,45,13.50
2012,04,21,13,46,13.50
2012,04,21,13,47,13.50
2012,04,21,13,48,13.60
2012,04,21,13,49,13.60
2012,04,21,13,50,13.70
2012,04,21,13,51,13.80
2012,04,21,13,52,13.80
2012,04,21,13,53,13.80
2012,04,21,13,54,13.80
2012,04,21,13,55,13.90
2012,04,21,13,56,13.90
2012,04,21,13,57,13.80
2012,04,21,13,58,13.80
2012,04,21,13,59,13.80
2012,04,21,14,00,13.70
2012,04,21,14,01,13.70
2012,04,21,14,02,13.60
2012,04,21,14,03,13.60
2012,04,21,14,04,13.50
2012,04,21,14,05,13.50
2012,04,21,14,06,13.50
2012,04,21,14,07,13.60
2012,04,21,14,08,13.50
2012,04,21,14,09,13.50
2012,04,21,14,10,13.50
2012,04,21,14,11,13.40
2012,04,21,14,12,13.40
2012,04,21,14,13,13.50
2012,04,21,14,14,13.50
2012,04,21,14,15,13.50
2012,04,21,14,16,13.60
2012,04,21,14,17,13.70
2012,04,21,14,18,13.70
2012,04,21,14,19,13.80
2012,04,21,14,20,13.80
2012,04,21,14,21,13.80
2012,04,21,14,22,13.80
2012,04,21,14,23,13.90
2012,04,21,14,24,13.80
2012,04,21,14,25,13.80
2012,04,21,14,26,13.80
2012,04,21,14,27,13.80
2012,04,21,14,28,13.80
2012,04,21,14,29,13.80
2012,04,21,14,30,13.80
2012,04,21,14,31,13.80
2012,04,21,14,32,13.80
2012,04,21,14,33,13.80
2012,04,21,14,34,13.80
2012,04,21,14,35,13.70
2012,04,21,14,36,13.70
2012,04,21,14,37,13.70
2012,04,21,14,38,13.70
2012,04,21,14,39,13.60
2012,04,21,14,40,13.60
2012,04,21,14,41,13.60
2012,04,21,14,42,13.60
2012,04,21,14,43,13.70
2012,04,21,14,44,13.70
2012,04,21,14,45,13.70
2012,04,21,14,46,13.70
2012,04,21,14,47,13.70
2012,04,21,14,48,13.80
2012,04,21,14,49,13.80
2012,04,21,14,50,13.80
2012,04,21,14,51,13.90
2012,04,21,14,52,13.90
2012,04,21,14,53,14.00
2012,04,21,14,54,14.10
2012,04,21,14,55,14.10
2012,04,21,14,56,14.10
2012,04,21,14,57,14.10
2012,04,21,14,58,14.10
2012,04,21,14,59,14.10
2012,04,21,15,00,14.10
2012,04,21,15,01,14.20
2012,04,21,15,02,14.20
2012,04,21,15,03,14.20
2012,04,21,15,04,14.20
2012,04,21,15,05,14.20
2012,04,21,15,06,14.20
2012,04,21,15,07,14.20
2012,04,21,15,08,14.10
2012,04,21,15,09,14.10
2012,04,21,15,10,14.10
2012,04,21,15,11,14.10
2012,04,21,15,12,14.10
2012,04,21,15,13,14.10
2012,04,21,15,14,14.20
2012,04,21,15,15,14.20
2012,04,21,15,16,14.20
2012,04,21,15,17,14.30
2012,04,21,15,18,14.30
2012,04,21,15,19,14.30
2012,04,21,15,20,14.30
2012,04,21,15,21,14.20
2012,04,21,15,22,14.20
2012,04,21,15,23,14.20
2012,04,21,15,24,14.20
2012,04,21,15,25,14.10
2012,04,21,15,26,14.10
2012,04,21,15,27,14.20
2012,04,21,15,28,14.20
2012,04,21,15,29,14.20
2012,04,21,15,30,14.20
2012,04,21,15,31,14.20
2012,04,21,15,32,14.30
2012,04,21,15,33,14.30
2012,04,21,15,34,14.30
2012,04,21,15,35,14.30
2012,04,21,15,36,14.30
2012,04,21,15,37,14.30
2012,04,21,15,38,14.40
2012,04,21,15,39,14.40
2012,04,21,15,40,14.40
2012,04,21,15,41,14.40
2012,04,21,15,42,14.50
2012,04,21,15,43,14.50
2012,04,21,15,44,14.60
2012,04,21,15,45,14.60
2012,04,21,15,46,14.70
2012,04,21,15,47,14.70
2012,04,21,15,48,14.80
2012,04,21,15,49,14.80
2012,04,21,15,50,14.80
2012,04,21,15,51,14.90
2012,04,21,15,52,14.90
2012,04,21,15,53,15.00
2012,04,21,15,54,15.00
2012,04,21,15,55,15.10
2012,04,21,15,56,15.10
2012,04,21,15,57,15.10
2012,04,21,15,58,15.10
2012,04,21,15,59,15.10
2012,04,21,16,00,15.10
2012,04,21,16,01,15.00
2012,04,21,16,02,15.00
2012,04,21,16,03,14.90
2012,04,21,16,04,14.90
2012,04,21,16,05,14.80
2012,04,21,16,06,14.80
2012,04,21,16,07,14.70
2012,04,21,16,08,14.70
2012,04,21,16,09,14.70
2012,04,21,16,10,14.70
2012,04,21,16,11,14.70
2012,04,21,16,12,14.70
2012,04,21,16,13,14.70
2012,04,21,16,14,14.70
2012,04,21,16,15,14.70
2012,04,21,16,16,14.80
2012,04,21,16,17,14.80
2012,04,21,16,18,14.80
2012,04,21,16,19,14.90
2012,04,21,16,20,14.90
2012,04,21,16,21,15.00
2012,04,21,16,22,15.00
2012,04,21,16,23,15.10
2012,04,21,16,24,15.20
2012,04,21,16,25,15.30
2012,04,21,16,26,15.30
2012,04,21,16,27,15.40
2012,04,21,16,28,15.40
2012,04,21,16,29,15.40
2012,04,21,16,30,15.40
2012,04,21,16,31,15.40
2012,04,21,16,32,15.50
2012,04,21,16,33,15.50
2012,04,21,16,34,15.60
2012,04,21,16,35,15.60
2012,04,21,16,36,15.70
2012,04,21,16,37,15.70
2012,04,21,16,38,15.70
2012,04,21,16,39,15.80
2012,04,21,16,40,15.80
2012,04,21,16,41,15.90
2012,04,21,16,42,15.90
2012,04,21,16,43,15.90
2012,04,21,16,44,15.90
2012,04,21,16,45,15.90
2012,04,21,16,46,15.90
2012,04,21,16,47,15.90
2012,04,21,16,48,15.80
2012,04,21,16,49,15.80
2012,04,21,16,50,15.80
2012,04,21,16,51,15.80
2012,04,21,16,52,15.80
2012,04,21,16,53,15.80
2012,04,21,16,54,15.70
2012,04,21,16,55,15.70
2012,04,21,16,56,15.70
2012,04,21,16,57,15.70
2012,04,21,16,58,15.70
2012,04,21,16,59,15.70
2012,04,21,17,00,15.70
2012,04,21,17,01,15.70
2012,04,21,17,02,15.60
2012,04,21,17,03,15.50
2012,04,21,17,04,15.40
2012,04,21,17,05,15.40
2012,04,21,17,06,15.30
2012,04,21,17,07,15.20
2012,04,21,17,08,15.20
2012,04,21,17,09,15.20
2012,04,21,17,10,15.20
2012,04,21,17,11,15.20
2012,04,21,17,12,15.20
2012,04,21,17,13,15.20
2012,04,21,17,14,15.20
2012,04,21,17,15,15.30
2012,04,21,17,16,15.30
2012,04,21,17,17,15.30
2012,04,21,17,18,15.30
2012,04,21,17,19,15.30
2012,04,21,17,20,15.30
2012,04,21,17,21,15.20
2012,04,21,17,22,15.20
2012,04,21,17,23,15.10
2012,04,21,17,24,15.10
2012,04,21,17,25,15.10
2012,04,21,17,26,15.10
2012,04,21,17,27,15.10
2012,04,21,17,28,15.00
2012,04,21,17,29,15.00
2012,04,21,17,30,15.00
2012,04,21,17,31,15.00
2012,04,21,17,32,14.90
2012,04,21,17,33,14.90
2012,04,21,17,34,14.90
2012,04,21,17,35,14.80
2012,04,21,17,36,14.80
2012,04,21,17,37,14.80
2012,04,21,17,38,14.80
2012,04,21,17,39,14.80
2012,04,21,17,40,14.80
2012,04,21,17,41,14.80
2012,04,21,17,42,14.80
2012,04,21,17,43,14.80
2012,04,21,17,44,14.80
2012,04,21,17,45,14.80
2012,04,21,17,46,14.90